STAR ONE C4 (40733 NORAD) Tracking and Keplerian Element Data

This shows tracking and keplerian element data for the satellite.

Feedback or suggestion? Click here.




ElementValue
Catalog40733
NameSTAR ONE C4
Epoch Orbit2638
Epoch Day269.29793645
Epoch Year2022
RAAN97.8382
Inclination0.0118
Eccentricity0.0001665
Argument of Perigee126.0649
Mean Anonmoly178.4389
Mean Motion1.0026942
Decay Rate-2.62E-06
L11 40733U 15034B 22269.29793645 -.00000262 00000+0 00000+0 0 9995
L22 40733 0.0118 97.8382 0001665 126.0649 178.4389 1.00269420 26385

Live tracking and technical data element details for STAR ONE C4 (NORAD 40733). STAR ONE C4 can be tracked NOW for your location showing map with azimuth and elevation plus other details from your city location.

Track the satellite on the map from your city or location and see movement details for azimuth, elevation, latitude, longitude, range, height, and movement on the map or in text.







IsCatalogInMostPopularTable: catalog: 40733, numindb: 736
Update: records affected: 1



GetName: 40733 STAR ONE C4

Hit Count: updated at: Wed, 28 Sep 2022 23:20:44 GMT